Location: Fontevrault
(47.1823°N, 0.0493°E)
Time: 18:15:26
(UTC+00:00)

Cosmos 1725 Rocket - Pass Details

Date: 26 October 2021
Orbit: 961 x 991 km, 82.9° (Epoch: 27 November)

Event Time Altitude Azimuth Distance (km) Brightness Sun altitude
Exits shadow 20:19:45 27° 357° (N) 1,763 5.5 -35.4°
Drops below altitude 10° 20:22:26 10° 4° (N) 2,714 6.5 -35.8°
Sets 20:24:59 0° 7° (N) 3,663 7.2 -36.2°
